EW8073 Weather Reports


time (UTC)temp
C
wind
direction
speed
KPH
gust
KPH
rain 1hr
cm
rain 24hr
cm
rain mn
cm
humidity
%
barometer
mb
20260507200655 21 259 6.4 19.3 0.00 0.00 0.00 27 1012.9
20260507200148 20 251 4.8 16.1 0.00 0.00 0.00 27 1012.9
20260507195642 20 5 4.8 17.7 0.00 0.00 0.00 28 1013.1
20260507195136 20 336 6.4 17.7 0.00 0.00 0.00 28 1013.2
20260507194630 20 226 6.4 17.7 0.00 0.00 0.00 28 1013.2
20260507194125 20 249 6.4 17.7 0.00 0.00 0.00 28 1013.2
20260507193618 20 273 6.4 16.1 0.00 0.00 0.00 30 1013.2
20260507193112 19 250 6.4 17.7 0.00 0.00 0.00 29 1013.1
20260507192606 19 246 8.0 24.1 0.00 0.00 0.00 31 1013.1
20260507192100 19 214 6.4 24.1 0.00 0.00 0.00 29 1013.2
20260507191554 19 334 4.8 17.7 0.00 0.00 0.00 30 1013.2
20260507191047 19 245 4.8 16.1 0.00 0.00 0.00 31 1013.4
20260507190541 19 36 4.8 16.1 0.00 0.00 0.00 30 1013.6
20260507190037 18 257 4.8 17.7 0.00 0.00 0.00 30 1013.6
20260507185531 18 217 3.2 19.3 0.00 0.00 0.00 30 1013.7
20260507185024 18 127 3.2 19.3 0.00 0.00 0.00 33 1013.8
20260507184519 18 242 3.2 8.0 0.00 0.00 0.00 34 1013.8
20260507184012 18 279 4.8 11.3 0.00 0.00 0.00 33 1013.8
20260507183505 18 336 4.8 11.3 0.00 0.00 0.00 33 1013.9
20260507183001 18 286 4.8 17.7 0.00 0.00 0.00 32 1013.9
20260507182454 18 282 4.8 17.7 0.00 0.00 0.00 31 1013.9
20260507181443 18 308 4.8 12.9 0.00 0.00 0.00 33 1014.0
20260507180936 18 333 4.8 16.1 0.00 0.00 0.00 32 1014.0
20260507180431 18 220 4.8 16.1 0.00 0.00 0.00 34 1014.0
20260507175924 18 242 4.8 12.9 0.00 0.00 0.00 35 1013.9
20260507175418 18 242 4.8 12.9 0.00 0.00 0.00 35 1013.9
20260507174407 18 250 3.2 8.0 0.00 0.00 0.00 37 1014.1
20260507172851 17 243 3.2 11.3 0.00 0.00 0.00 36 1014.3
20260507172351 17 248 1.6 8.0 0.00 0.00 0.00 36 1014.4
20260507171852 17 246 1.6 8.0 0.00 0.00 0.00 38 1014.3
20260507171352 17 246 3.2 9.7 0.00 0.00 0.00 38 1014.5
20260507170852 17 244 3.2 12.9 0.00 0.00 0.00 36 1014.4
20260507170353 17 263 3.2 12.9 0.00 0.00 0.00 37 1014.4
20260507165852 16 267 3.2 12.9 0.00 0.00 0.00 36 1014.4
20260507165351 16 248 4.8 14.5 0.00 0.00 0.00 38 1014.4
20260507164848 16 254 4.8 14.5 0.00 0.00 0.00 38 1014.5
20260507164347 16 246 6.4 14.5 0.00 0.00 0.00 38 1014.5
20260507163347 16 243 3.2 9.7 0.00 0.00 0.00 38 1014.6
20260507162847 16 258 3.2 16.1 0.00 0.00 0.00 40 1014.6
20260507162350 16 261 4.8 16.1 0.00 0.00 0.00 39 1014.6
20260507161844 15 249 1.6 11.3 0.00 0.00 0.00 43 1014.7
20260507161343 15 249 1.6 8.0 0.00 0.00 0.00 46 1014.7
20260507160843 14 250 4.8 11.3 0.00 0.00 0.00 46 1014.7
20260507160343 14 265 3.2 12.9 0.00 0.00 0.00 46 1014.8
20260507155844 13 261 3.2 12.9 0.00 0.00 0.00 46 1014.8
20260507155344 13 264 1.6 11.3 0.00 0.00 0.00 47 1014.7
20260507154844 13 213 1.6 6.4 0.00 0.00 0.00 49 1014.8
20260507153340 12 261 3.2 12.9 0.00 0.00 0.00 49 1015.2
20260507152840 11 228 1.6 6.4 0.00 0.00 0.00 51 1015.2
20260507152339 11 228 1.6 6.4 0.00 0.00 0.00 52 1015.2
20260507151840 11 229 1.6 6.4 0.00 0.00 0.00 52 1015.2
20260507151339 11 228 1.6 4.8 0.00 0.00 0.00 54 1015.2
20260507145839 10 220 0.0 4.8 0.00 0.00 0.00 54 1015.3
20260507144337 10 229 1.6 6.4 0.00 0.00 0.00 55 1015.3
20260507143839 9 229 1.6 4.8 0.00 0.00 0.00 58 1015.3
20260507143339 9 229 0.0 3.2 0.00 0.00 0.00 60 1015.3
20260507142838 8 230 0.0 3.2 0.00 0.00 0.00 61 1015.2
20260507142338 8 230 0.0 0.0 0.00 0.00 0.00 63 1015.2
20260507141837 8 230 0.0 0.0 0.00 0.00 0.00 65 1015.2
20260507141335 7 231 0.0 0.0 0.00 0.00 0.00 66 1015.2
20260507140331 7 231 0.0 0.0 0.00 0.00 0.00 65 1015.3
20260507135831 6 231 0.0 0.0 0.00 0.00 0.00 65 1015.2
20260507135332 6 231 0.0 0.0 0.00 0.00 0.00 66 1015.3
20260507134332 6 231 0.0 0.0 0.00 0.00 0.00 66 1015.3
20260507133829 6 231 0.0 0.0 0.00 0.00 0.00 66 1015.3
20260507133331 5 232 0.0 0.0 0.00 0.00 0.00 67 1015.3
20260507132824 5 232 0.0 0.0 0.00 0.00 0.00 69 1015.2
20260507132318 4 232 0.0 0.0 0.00 0.00 0.00 71 1015.3
20260507131812 4 232 0.0 0.0 0.00 0.00 0.00 71 1015.1
20260507131307 4 232 0.0 0.0 0.00 0.00 0.00 70 1015.1
20260507130801 3 232 0.0 0.0 0.00 0.00 0.00 70 1015.0
20260507130255 3 232 0.0 3.2 0.00 0.00 0.00 70 1015.0
20260507125748 3 232 0.0 3.2 0.00 0.00 0.00 70 1015.0
20260507125242 3 232 0.0 3.2 0.00 0.00 0.00 70 1015.0
20260507124230 2 236 0.0 0.0 0.00 0.00 0.00 71 1014.7
20260507123725 2 236 0.0 0.0 0.00 0.00 0.00 72 1014.7
20260507123218 2 236 0.0 0.0 0.00 0.00 0.00 72 1014.6
20260507122713 2 235 0.0 0.0 0.00 0.00 0.00 72 1014.6
20260507122207 2 235 0.0 0.0 0.00 0.00 0.00 72 1014.6
20260507121659 2 235 0.0 0.0 0.00 0.00 0.00 72 1014.5
20260507121153 2 235 0.0 0.0 0.00 0.00 0.00 72 1014.6
20260507120142 2 235 0.0 3.2 0.00 0.00 0.00 72 1014.7
20260507115637 2 235 0.0 3.2 0.00 0.00 0.00 72 1014.6
20260507115131 2 235 0.0 3.2 0.00 0.00 0.00 72 1014.6
20260507114627 2 237 0.0 3.2 0.00 0.00 0.00 72 1014.6
20260507114119 2 237 0.0 3.2 0.00 0.00 0.00 72 1014.6
20260507113613 2 236 0.0 4.8 0.00 0.00 0.00 72 1014.6
20260507113106 2 236 1.6 4.8 0.00 0.00 0.00 72 1014.5
20260507112600 2 236 1.6 4.8 0.00 0.00 0.00 73 1014.5
20260507112054 2 236 1.6 6.4 0.00 0.00 0.00 73 1014.4
20260507111548 2 236 0.0 6.4 0.00 0.00 0.00 73 1014.5
20260507110536 2 236 1.6 6.4 0.00 0.00 0.00 73 1014.4
20260507105524 1 236 0.0 4.8 0.00 0.00 0.00 73 1014.5
20260507105018 1 234 0.0 6.4 0.00 0.00 0.00 73 1014.6
20260507104512 2 233 0.0 6.4 0.00 0.00 0.00 73 1014.6
20260507104006 2 233 0.0 0.0 0.00 0.00 0.00 73 1014.5
20260507103500 2 234 0.0 0.0 0.00 0.00 0.00 73 1014.5
20260507102954 2 234 0.0 0.0 0.00 0.00 0.00 74 1014.5
20260507102448 1 234 0.0 0.0 0.00 0.00 0.00 74 1014.7
20260507101436 1 234 0.0 0.0 0.00 0.00 0.00 75 1015.0
20260507100931 1 234 0.0 0.0 0.00 0.00 0.00 75 1014.8
20260507100424 1 234 0.0 0.0 0.00 0.00 0.00 76 1014.7
20260507094906 1 234 0.0 0.0 0.00 0.00 0.00 76 1015.1
20260507094401 1 233 0.0 0.0 0.00 0.00 0.00 76 1015.2
20260507093855 1 233 0.0 0.0 0.00 0.00 0.00 76 1015.2
20260507092842 1 233 0.0 0.0 0.00 0.00 0.00 77 1015.1
20260507092336 1 233 0.0 0.0 0.00 0.00 0.00 77 1015.1
20260507091325 1 233 0.0 0.0 0.00 0.00 0.00 78 1015.2
20260507090818 1 233 0.0 0.0 0.00 0.00 0.00 78 1015.2
20260507085807 1 233 0.0 0.0 0.00 0.00 0.00 78 1015.2
20260507085301 1 233 0.0 3.2 0.00 0.00 0.00 79 1015.1
20260507084754 1 233 0.0 3.2 0.00 0.00 0.00 79 1015.0
20260507084248 1 233 0.0 1.6 0.00 0.00 0.00 80 1015.1
20260507083742 1 233 0.0 4.8 0.00 0.00 0.00 80 1015.1
20260507083236 1 233 0.0 4.8 0.00 0.00 0.00 81 1015.0
20260507082730 1 238 0.0 0.0 0.00 0.00 0.00 82 1015.1
20260507082224 1 238 0.0 0.0 0.00 0.00 0.00 82 1015.2
20260507081719 1 238 0.0 0.0 0.00 0.00 0.00 83 1015.3
20260507081212 1 238 0.0 0.0 0.00 0.00 0.00 83 1015.2
20260507080200 1 238 0.0 0.0 0.00 0.00 0.00 83 1015.5
20260507075654 1 238 0.0 0.0 0.00 0.00 0.00 83 1015.5
20260507074642 1 238 0.0 0.0 0.00 0.00 0.00 84 1015.5
20260507074134 1 238 0.0 0.0 0.00 0.00 0.00 84 1015.5
20260507073134 1 238 0.0 3.2 0.00 0.00 0.00 84 1015.9
20260507072631 1 238 0.0 4.8 0.00 0.00 0.00 84 1015.8
20260507072130 1 238 1.6 6.4 0.00 0.00 0.00 84 1015.9
20260507071631 1 236 1.6 6.4 0.00 0.00 0.00 84 1015.8
20260507070129 1 239 1.6 6.4 0.00 0.00 0.00 85 1016.0
20260507065638 1 229 1.6 4.8 0.00 0.00 0.00 85 1016.0
20260507065129 1 228 0.0 4.8 0.00 0.00 0.00 85 1016.0
20260507064631 1 228 0.0 3.2 0.00 0.00 0.00 84 1016.0
20260507064125 1 228 0.0 4.8 0.00 0.00 0.00 85 1016.0
20260507063626 1 228 0.0 4.8 0.00 0.00 0.00 84 1016.0
20260507060628 1 227 0.0 6.4 0.00 0.00 0.00 84 1016.2
20260507055620 1 225 0.0 0.0 0.00 0.00 0.00 83 1016.2
20260507055114 1 225 0.0 0.0 0.00 0.00 0.00 83 1016.2
20260507053556 1 225 0.0 0.0 0.00 0.00 0.00 82 1016.4
20260507053049 0 225 0.0 0.0 0.00 0.00 0.00 82 1016.5
20260507052545 0 225 0.0 0.0 0.00 0.00 0.00 81 1016.6
20260507052038 0 225 0.0 0.0 0.00 0.00 0.00 81 1016.6
20260507051532 0 225 0.0 0.0 0.00 0.00 0.00 80 1016.7
20260507051026 0 225 0.0 0.0 0.00 0.00 0.00 80 1016.7
20260507050519 0 225 0.0 0.0 0.00 0.00 0.00 80 1016.7
20260507050014 0 225 0.0 0.0 0.00 0.00 0.00 80 1016.8
20260507045509 0 225 0.0 0.0 0.00 0.00 0.00 80 1016.8
20260507045002 0 225 0.0 0.0 0.00 0.00 0.00 79 1016.7
20260507044455 0 225 0.0 0.0 0.00 0.00 0.00 79 1016.9
20260507043950 1 225 0.0 0.0 0.00 0.00 0.00 79 1016.9
20260507043444 1 225 0.0 0.0 0.00 0.00 0.00 78 1016.9
20260507042938 1 225 0.0 0.0 0.00 0.00 0.00 78 1016.8
20260507042433 1 225 0.0 0.0 0.00 0.00 0.00 77 1016.8
20260507041420 1 225 0.0 0.0 0.00 0.00 0.00 76 1016.8
20260507040914 1 225 0.0 0.0 0.00 0.00 0.00 76 1016.8
20260507040409 1 225 0.0 0.0 0.00 0.00 0.00 76 1016.9
20260507035907 1 225 0.0 0.0 0.00 0.00 0.00 76 1017.2
20260507035408 1 225 0.0 0.0 0.00 0.00 0.00 76 1017.1
20260507034406 1 225 0.0 0.0 0.00 0.00 0.00 76 1017.1
20260507033903 1 225 0.0 0.0 0.00 0.00 0.00 76 1017.1
20260507033404 2 225 0.0 0.0 0.00 0.00 0.00 76 1016.9
20260507031901 2 225 0.0 0.0 0.00 0.00 0.00 76 1016.9
20260507030903 2 225 0.0 0.0 0.00 0.00 0.00 76 1016.9
20260507030400 2 225 0.0 0.0 0.00 0.00 0.00 75 1016.8
20260507025401 2 225 0.0 0.0 0.00 0.00 0.00 75 1016.8
20260507024901 2 225 0.0 0.0 0.00 0.00 0.00 75 1016.8
20260507024401 2 225 0.0 0.0 0.00 0.00 0.00 74 1016.7
20260507023858 2 225 0.0 0.0 0.00 0.00 0.00 74 1016.7
20260507022900 3 225 0.0 0.0 0.00 0.00 0.00 74 1016.6
20260507021900 3 225 0.0 0.0 0.00 0.00 0.00 73 1016.6
20260507021359 3 225 0.0 0.0 0.00 0.00 0.00 72 1016.6
20260507020859 3 225 0.0 0.0 0.00 0.00 0.00 72 1016.6
20260507020400 3 225 0.0 0.0 0.00 0.00 0.00 72 1016.6
20260507015859 3 225 0.0 0.0 0.00 0.00 0.00 71 1016.5
20260507015358 3 225 0.0 0.0 0.00 0.00 0.00 71 1016.5
20260507014859 3 225 0.0 0.0 0.00 0.00 0.00 71 1016.5
20260507014358 3 225 0.0 0.0 0.00 0.00 0.00 70 1016.5
20260507013858 3 225 0.0 0.0 0.00 0.00 0.00 70 1016.5
20260507012858 4 225 0.0 0.0 0.00 0.00 0.00 69 1016.6
20260507012359 4 225 0.0 0.0 0.00 0.00 0.00 69 1016.6
20260507011858 4 225 0.0 0.0 0.00 0.00 0.00 69 1016.6
20260507011400 4 225 0.0 0.0 0.00 0.00 0.00 68 1016.7
20260507010401 4 225 0.0 0.0 0.00 0.00 0.00 68 1016.7
20260507005358 5 225 0.0 0.0 0.00 0.00 0.00 66 1016.7
20260507004859 5 225 0.0 0.0 0.00 0.00 0.00 66 1016.7
20260507004358 5 225 0.0 0.0 0.00 0.00 0.00 67 1016.8
20260507003356 5 225 0.0 0.0 0.00 0.00 0.00 66 1016.9
20260507002856 6 225 0.0 0.0 0.00 0.00 0.00 64 1017.1
20260507002356 6 225 0.0 0.0 0.00 0.00 0.00 65 1017.2
20260507001856 6 225 0.0 0.0 0.00 0.00 0.00 65 1017.3
20260507001354 6 0 0.0 0.0 0.00 0.00 0.00 66 1017.2
20260507000852 6 0 0.0 0.0 0.00 0.00 0.00 65 1017.3
20260507000353 6 225 0.0 1.6 0.00 0.00 0.00 65 1017.4
20260506235847 6 225 0.0 3.2 0.00 0.00 0.00 65 1017.4
20260506235341 6 225 0.0 4.8 0.00 0.00 0.00 66 1017.5
20260506234835 6 225 1.6 6.4 0.00 0.00 0.00 65 1017.4
20260506234329 6 225 0.0 6.4 0.00 0.00 0.00 65 1017.4
20260506233824 6 226 0.0 1.6 0.00 0.00 0.00 66 1017.4
20260506233317 6 226 0.0 0.0 0.00 0.00 0.00 67 1017.4
20260506232306 6 225 1.6 6.4 0.00 0.00 0.00 68 1017.4
20260506231256 5 225 0.0 6.4 0.00 0.00 0.00 67 1017.4
20260506230747 6 225 0.0 6.4 0.00 0.00 0.00 67 1017.5
20260506225735 5 223 0.0 3.2 0.00 0.00 0.00 71 1017.6
20260506225229 5 223 0.0 3.2 0.00 0.00 0.00 68 1017.6
20260506224723 5 221 0.0 0.0 0.00 0.00 0.00 70 1017.6
20260506224218 5 222 0.0 3.2 0.00 0.00 0.00 71 1017.8
20260506223711 5 222 0.0 4.8 0.00 0.00 0.00 71 1017.8
20260506223205 5 221 0.0 4.8 0.00 0.00 0.00 70 1017.8
20260506222659 5 221 0.0 0.0 0.00 0.00 0.00 69 1018.0
20260506222153 5 221 0.0 0.0 0.00 0.00 0.00 68 1018.0
20260506221647 6 221 0.0 3.2 0.00 0.00 0.00 71 1018.1
20260506221141 5 221 0.0 4.8 0.00 0.00 0.00 71 1018.1
20260506220129 4 221 0.0 0.0 0.00 0.03 0.00 73 1018.2
20260506215625 4 221 0.0 6.4 0.00 0.03 0.00 72 1018.2
20260506214614 3 219 0.0 6.4 0.00 0.03 0.00 73 1018.5
20260506214105 4 217 0.0 0.0 0.00 0.03 0.00 74 1018.5
20260506213600 3 216 0.0 0.0 0.00 0.03 0.00 75 1018.5
20260506213053 3 217 0.0 0.0 0.00 0.03 0.00 76 1018.5
20260506212547 4 216 0.0 0.0 0.00 0.03 0.00 78 1018.5
20260506212041 4 216 0.0 0.0 0.00 0.03 0.00 79 1018.5
20260506211030 4 215 0.0 4.8 0.00 0.03 0.00 79 1018.6
20260506210524 4 216 0.0 4.8 0.00 0.03 0.00 80 1018.7
20260506210019 4 215 0.0 3.2 0.00 0.03 0.00 81 1018.7
20260506205511 4 215 0.0 3.2 0.00 0.03 0.00 81 1018.9
20260506205005 4 215 0.0 0.0 0.00 0.03 0.00 82 1018.9
20260506204459 4 215 0.0 1.6 0.00 0.03 0.00 82 1018.9
20260506203954 4 215 0.0 1.6 0.00 0.03 0.00 82 1019.0
20260506203447 4 215 0.0 0.0 0.00 0.03 0.00 83 1019.0
20260506202941 4 214 0.0 0.0 0.00 0.03 0.00 83 1019.2
20260506202435 4 214 0.0 1.6 0.00 0.03 0.00 83 1019.2
20260506201929 4 214 0.0 1.6 0.00 0.03 0.00 83 1019.2
20260506201424 4 215 0.0 1.6 0.00 0.03 0.00 83 1019.2